Regional Weather Roundup
Issued by NWS

Home | Current Version | Previous Version | Text Only | Print | Product List | Glossary Off
Versions: 1 2 3 4 5 6 7 8 9 10 11 12 13 14 15 16 17 18 19 20 21 22 23 24 25 26 27 28 29 30 31 32 33 34 35 36 37 38 39 40 41 42 43 44 45 46 47 48 49 50

000
ASUS45 KCYS 280410
RWRWY

WYOMING REGIONAL WEATHER ROUNDUP
NATIONAL WEATHER SERVICE CHEYENNE WY
900 PM MST TUE JAN 27 2015

NOTE:  "FAIR" INDICATES FEW OR NO CLOUDS BELOW 12,000 FEET
WITH NO SIGNIFICANT WEATHER AND/OR OBSTRUCTIONS TO VISIBILITY.

WYZ001-280500-
YELLOWSTONE NATIONAL PARK

CITY           SKY/WX    TMP DP  RH WIND       PRES   REMARKS
LK YELLOWSTONE   N/A     33  28  81 CALM      30.14S
W YELLOWSTONE  NOT AVBL

$$
WYZ002>013-054>058-071-098>099-280500-
NORTHERN WYOMING

CITY           SKY/WX    TMP DP  RH WIND       PRES   REMARKS
JACKSON        NOT AVBL
CODY           CLOUDY    54  27  35 W15G26    29.94F
GREYBULL       FAIR      31  27  85 SE7       29.95F WCI  24
WORLAND        FAIR      30  27  88 CALM      29.95S
SHERIDAN       FAIR      36  28  73 S7        29.87S WCI  30
BUFFALO        FAIR      46  24  42 SW7       29.90S
GILLETTE       FAIR      46  30  53 SW17      29.86S
HULETT           N/A    N/A N/A N/A MISG        N/A
NEWCASTLE      FAIR      39  28  65 NE6       29.93S WCI  35

$$
WYZ014>020-022>026-101>103-280500-
CENTRAL WYOMING

CITY           SKY/WX    TMP DP  RH WIND       PRES   REMARKS
BIG PINEY      FAIR      26  21  81 E5        30.16S WCI  20
PINEDALE       FAIR      21  19  93 W7        30.17F WCI  13
DUBOIS         FAIR      39  27  60 W17G23    30.07R WCI  30
LANDER         FAIR      35  28  75 VRB5      30.02R WCI  31
RIVERTON       FAIR      33  28  81 W10       30.03S WCI  25
CASPER         FAIR      45  27  49 SW21      30.00F
DOUGLAS        FAIR      53  26  35 W18       29.99S

$$
WYZ021-027>030-104>119-280500-
SOUTHERN WYOMING

CITY           SKY/WX    TMP DP  RH WIND       PRES   REMARKS
EVANSTON       FAIR      36  30  79 SW13      30.17F WCI  27
KEMMERER       FAIR      32  28  86 NW3       30.18S
FORT BRIDGER   FAIR      38  33  82 SW14      30.20S WCI  30
ROCK SPRINGS   CLOUDY    38  26  62 S7        30.17R WCI  33
DIXON          CLOUDY    40  30  66 S12       30.24S WCI  33
RAWLINS        FAIR      40  27  59 W17       30.16F WCI  31
SARATOGA       FAIR      36  28  75 W13       30.19R WCI  27
LARAMIE        FAIR      36  22  56 CALM      30.12F
CHEYENNE       FAIR      44  22  41 W14       30.04F
TORRINGTON     FAIR      46  27  47 W7        29.96S
PINE BLUFFS    FAIR      34  25  69 CALM      30.01F

$$



USA.gov is the U.S. government's official web portal to all federal, state and local government web resources and services.